Wind_Speed
17 19 17 14 11 5 2 1 1 1 1 1 2 0 3 1 2 3 6 5 2 3 2 1 5 5 2 2 3 4 4 3 4 3 2 4 4 12 10 10 15 14 15 13 11 12 11 11 10 11 12 10 9 10 10 9 9 10 8 6 6 6 8 8 9 10 11 12 11 10 9 9 9 10 10 10 11 11 12 12 13 13 14 14 15 15 15 16 16 16 16 17 18 19 19 19 19
18 20 17 14 9 3 0 1 2 2 1 1 2 0 3 2 2 5 6 3 2 4 3 3 5 4 1 3 3 3 2 2 5 4 4 5 9 12 10 12 15 14 15 12 11 11 11 11 10 10 11 10 8 10 11 10 9 9 6 5 6 7 10 10 9 9 10 11 11 11 10 9 9 10 10 10 12 12 12 13 13 14 14 14 15 15 15 16 16 16 15 16 17 17 17 17 17
18 19 18 13 4 1 0 1 2 1 1 1 3 3 3 4 5 4 3 3 5 6 4 5 5 3 3 3 2 3 0 2 2 3 4 7 10 11 11 13 15 14 14 12 12 11 10 11 11 10 9 9 8 10 12 12 11 9 7 8 7 7 10 9 7 8 10 11 10 11 10 10 9 10 11 11 11 12 13 13 13 14 14 14 15 14 14 15 15 15 15 15 15 15 16 16 16
16 17 16 10 2 1 1 1 1 1 0 1 1 5 5 5 5 4 4 5 6 4 4 5 4 1 4 4 1 2 0 2 2 2 4 7 8 12 13 14 15 13 12 11 11 11 10 11 11 10 9 8 9 11 13 13 12 11 11 11 7 7 10 7 6 8 10 10 10 11 11 10 9 10 11 11 10 11 12 13 13 14 13 14 14 14 13 15 15 14 14 14 13 14 15 14 14
15 14 12 6 2 1 1 0 0 1 1 0 1 5 6 3 4 6 6 5 3 1 1 4 3 2 3 2 1 1 1 2 3 2 4 8 9 13 14 15 15 12 12 11 11 11 10 12 11 10 9 8 9 10 12 13 13 12 11 9 6 8 11 7 6 9 9 9 9 11 11 11 10 9 10 11 10 11 12 12 13 13 13 13 13 13 13 14 14 14 14 13 12 13 13 13 13
12 10 7 5 0 1 1 1 1 1 3 1 2 4 5 4 5 7 7 4 1 3 2 3 2 2 2 1 1 2 2 1 3 3 4 8 11 12 14 15 14 12 12 11 11 10 11 13 12 10 9 9 8 9 10 12 13 12 10 8 7 9 10 8 8 7 8 8 7 10 11 10 10 8 8 10 11 11 12 12 13 13 12 12 12 12 13 13 14 13 13 12 12 12 13 13 12
11 7 3 3 2 1 2 1 1 2 3 2 3 2 5 6 6 8 8 5 2 2 2 3 2 2 2 2 3 2 1 0 2 3 5 10 13 13 14 14 12 13 12 11 11 10 12 14 13 11 9 10 10 11 10 10 11 10 10 9 9 9 7 8 9 7 7 7 7 8 11 10 8 7 9 11 11 11 11 12 12 12 12 12 12 12 12 13 13 13 12 12 11 11 12 12 12
9 5 1 2 0 1 1 2 1 1 2 1 2 1 2 7 7 8 9 5 2 1 2 2 4 4 1 1 2 4 3 2 2 3 7 12 14 13 13 13 12 12 11 11 11 10 13 15 13 11 10 11 11 12 11 11 11 9 11 12 10 8 6 7 9 8 7 8 7 8 10 10 8 9 11 11 11 10 11 11 11 11 11 12 12 12 12 12 12 12 11 11 10 10 10 11 11
6 4 1 3 1 0 1 2 2 1 1 2 2 1 1 6 6 6 8 4 0 1 3 1 3 4 2 4 1 3 4 4 4 4 10 14 14 14 13 13 13 12 11 12 11 10 13 15 13 11 11 11 11 13 11 11 12 11 11 12 11 9 8 8 9 8 6 7 8 8 8 8 8 9 10 11 10 9 9 10 10 10 11 11 11 11 11 11 11 11 10 9 9 9 9 9 9
3 4 0 1 2 2 2 2 2 1 2 1 2 3 3 6 6 5 6 4 1 2 2 1 3 4 0 4 1 2 3 5 6 7 12 15 15 14 13 13 13 12 12 13 12 10 12 14 13 11 11 11 11 12 13 12 12 12 11 12 12 10 9 8 9 8 6 6 8 8 7 7 7 8 8 9 9 9 9 9 10 10 10 10 10 11 11 10 10 10 9 8 8 9 8 8 8
1 3 0 2 3 4 3 3 3 2 2 1 2 4 4 6 6 4 4 2 2 2 2 2 4 3 2 2 0 2 2 6 8 10 14 15 15 14 14 13 12 12 12 13 13 11 11 12 13 11 11 12 12 12 13 13 12 12 11 12 11 10 9 9 10 9 7 6 6 7 7 7 7 7 8 8 8 8 8 8 9 9 9 9 9 10 10 10 9 9 8 7 7 7 7 6 6
1 1 1 3 4 3 2 3 3 3 3 3 4 5 4 6 6 6 6 4 4 4 4 5 1 0 4 2 1 3 1 5 7 10 15 15 14 14 14 13 13 13 11 13 14 12 11 12 13 12 11 12 14 12 11 13 13 12 11 12 11 12 11 10 11 9 8 7 5 6 6 7 6 7 8 7 7 7 7 8 8 8 8 8 8 9 10 10 9 8 7 6 6 6 6 5 5
1 1 2 3 1 2 1 2 2 2 3 5 4 5 5 8 7 5 6 5 5 6 4 4 1 1 4 1 1 2 2 6 7 10 14 14 14 13 13 12 13 13 11 14 14 13 13 12 12 12 12 13 14 12 10 12 14 14 13 12 12 13 13 11 12 11 9 8 6 6 6 7 7 7 8 7 7 6 7 7 7 7 7 7 7 8 9 9 8 7 7 6 5 5 5 4 4
1 1 2 2 0 1 2 1 2 4 4 5 4 6 6 5 4 3 5 6 7 4 1 2 2 2 3 1 2 3 3 7 9 10 13 12 12 12 12 11 12 13 12 14 14 13 13 13 13 12 13 13 13 12 11 11 12 14 15 14 13 13 14 13 12 12 11 10 9 9 8 7 6 7 7 7 7 7 7 7 6 5 5 6 7 7 7 7 7 7 7 6 5 5 4 4 3
1 2 0 1 1 2 3 1 2 5 3 7 4 5 7 2 1 4 5 5 3 3 2 2 2 2 1 2 1 3 4 9 10 10 11 11 11 10 11 11 12 12 12 14 14 13 13 13 12 12 13 12 12 12 12 12 12 13 15 15 14 13 14 13 12 13 12 11 11 10 9 7 6 6 7 7 7 7 7 7 5 4 4 6 6 6 7 6 6 7 7 7 6 5 4 3 2
1 2 1 2 3 3 4 2 1 4 2 6 3 4 7 3 2 4 2 2 1 3 1 3 3 2 1 1 2 4 3 11 11 10 11 10 10 10 10 10 11 12 12 14 14 14 13 14 13 12 12 12 12 11 12 13 12 13 15 14 15 14 13 13 13 12 13 12 11 10 9 8 7 6 7 7 7 8 7 7 5 5 6 6 6 7 7 7 7 7 7 7 7 5 4 3 2
1 3 3 4 4 4 4 4 3 2 2 5 4 5 9 5 3 2 1 2 2 3 3 3 3 3 2 1 3 3 5 13 12 11 11 11 10 10 10 11 12 13 13 14 15 14 13 14 14 13 12 13 13 12 12 12 12 13 14 13 14 15 14 13 12 12 12 12 12 11 10 8 7 7 7 8 8 8 8 7 6 7 7 7 7 8 8 8 8 8 8 8 7 6 5 3 2
3 3 5 5 4 4 4 5 4 1 2 5 6 7 8 5 5 3 2 5 3 2 5 4 3 5 5 2 1 1 8 13 13 14 13 12 12 11 12 12 13 13 14 15 15 15 14 14 14 13 13 14 13 13 12 11 12 12 12 12 13 14 14 14 13 13 13 13 12 12 11 9 7 8 9 9 9 9 9 8 8 8 8 8 7 7 8 8 8 8 8 8 8 7 6 4 3
3 2 4 5 4 3 1 4 3 1 2 4 5 4 5 3 4 5 5 6 5 6 7 6 7 8 8 6 3 4 10 12 14 15 15 15 14 14 13 13 14 14 15 15 16 16 15 14 15 15 14 14 15 14 12 11 12 13 12 11 12 13 14 14 14 15 15 15 14 13 11 10 10 10 11 11 10 10 10 10 10 9 9 8 8 7 8 8 8 8 7 8 8 8 7 5 4
1 2 6 3 3 2 2 3 3 1 2 2 4 3 3 2 2 4 5 4 5 9 8 6 8 10 11 9 7 9 11 12 15 16 16 16 16 14 14 14 15 16 16 15 16 16 16 15 15 15 15 15 16 15 14 13 13 14 13 13 13 12 13 14 14 15 17 17 15 13 12 12 14 14 14 13 13 12 12 12 11 11 10 9 9 8 8 8 9 9 7 8 8 8 7 5 3
1 2 5 1 1 2 2 2 3 2 1 0 4 4 4 2 1 4 5 5 6 9 9 9 10 9 9 10 10 12 12 13 15 17 17 17 17 16 15 14 15 15 15 15 16 16 17 17 16 15 16 17 17 16 16 16 15 15 15 15 14 13 13 14 13 14 16 18 16 15 15 15 16 17 16 16 16 16 15 14 13 12 11 10 10 9 9 9 9 9 8 9 9 8 6 4 3
3 1 2 2 1 1 2 1 3 3 0 1 4 3 3 3 3 6 7 8 5 2 4 7 9 6 4 10 12 12 13 14 16 18 18 18 18 17 16 15 14 15 15 16 17 17 18 17 17 16 17 18 19 17 16 17 16 16 16 15 15 15 15 14 14 13 14 16 17 16 16 16 17 18 18 18 17 17 17 16 16 14 13 12 11 11 10 9 9 10 10 9 9 8 7 5 4
4 3 1 1 2 0 2 2 3 3 2 2 2 1 2 3 6 5 8 13 4 5 3 3 4 3 2 8 12 13 13 15 17 19 20 19 20 19 17 16 15 15 16 17 17 18 18 18 17 17 18 18 19 18 17 17 17 16 16 16 15 15 15 15 15 15 14 15 17 18 17 16 17 18 18 18 18 18 17 16 16 16 15 13 12 12 11 10 9 10 11 10 10 9 8 6 5
5 4 4 3 2 1 1 2 1 3 2 0 1 1 3 6 5 2 7 15 10 1 3 3 4 2 2 6 10 13 14 16 18 19 19 19 20 19 18 16 15 15 16 17 18 18 18 18 18 18 19 19 18 18 18 19 19 18 17 16 16 16 15 15 16 15 15 14 16 17 17 15 15 16 16 17 16 16 15 13 12 14 16 14 12 13 12 11 10 10 11 11 11 10 8 6 4
7 6 5 4 2 2 1 2 1 2 1 1 2 4 4 4 1 1 8 14 10 4 2 1 2 0 4 7 9 11 13 15 17 16 16 16 15 16 17 15 14 15 17 17 17 18 18 18 18 19 20 20 18 17 18 19 20 20 19 17 16 16 15 15 15 15 15 15 15 16 17 16 14 14 14 13 13 13 12 11 10 11 14 15 13 13 12 11 11 11 11 11 11 9 7 6 5
8 8 5 5 4 3 1 1 2 1 1 2 4 7 3 2 1 5 12 13 5 1 4 5 4 5 6 7 9 10 11 14 15 15 15 14 13 15 17 17 16 17 17 17 18 18 18 17 19 20 20 21 19 18 18 17 19 21 22 21 18 17 16 14 14 14 14 15 15 15 17 18 16 16 15 13 11 12 11 11 11 10 14 16 14 13 13 12 11 11 10 10 10 9 8 7 6
4 7 5 5 4 3 2 2 2 0 2 3 6 9 2 3 2 7 9 6 1 2 7 5 5 9 8 7 8 9 11 13 14 12 12 13 14 17 18 18 19 19 17 18 18 17 17 17 18 19 20 20 19 19 19 18 18 21 23 23 22 20 19 16 14 14 14 15 16 15 15 17 18 17 16 15 12 11 11 11 12 12 15 16 14 13 13 12 12 12 11 10 10 9 8 7 7
4 5 4 4 3 3 3 3 3 2 3 3 4 9 4 4 5 9 6 2 1 4 7 5 7 9 8 8 6 7 10 12 11 11 13 15 17 18 18 21 21 20 19 20 20 17 18 18 19 18 20 21 20 19 19 20 18 19 21 24 25 24 22 20 17 16 16 16 17 18 17 16 16 16 15 14 13 12 11 11 10 13 17 16 15 13 13 13 12 13 13 13 12 12 9 8 8
4 4 4 5 4 6 7 5 4 4 3 3 2 7 9 9 9 11 9 4 2 5 7 6 7 8 7 7 6 6 8 9 10 12 16 17 17 17 20 23 22 21 21 21 20 20 19 19 18 18 18 20 21 20 19 18 17 17 19 21 24 25 24 23 21 18 17 17 18 22 21 17 15 15 15 14 13 12 12 11 10 12 15 15 15 14 12 12 12 13 14 14 15 15 12 10 10
4 3 4 5 6 7 7 5 4 5 3 4 4 6 9 12 10 9 8 6 6 8 10 9 8 8 7 6 6 7 8 9 12 15 16 16 15 16 19 20 21 22 20 20 23 24 22 20 18 15 18 20 21 21 19 18 17 17 17 17 21 24 26 28 27 23 20 19 20 23 24 20 17 15 14 14 14 13 12 13 12 12 13 12 14 14 12 12 12 13 14 14 15 16 13 11 11
5 4 2 6 7 4 5 5 7 8 2 4 6 7 9 10 7 7 7 7 8 11 12 11 10 8 7 6 6 7 8 10 13 14 15 15 15 16 18 19 20 23 22 24 28 28 26 25 22 18 18 20 21 21 20 19 18 17 17 16 18 21 25 29 32 29 25 23 23 24 25 24 22 18 16 15 14 13 13 14 14 13 12 12 13 15 12 11 11 12 13 14 14 15 13 11 12
5 5 6 7 7 3 5 4 8 8 2 5 8 6 7 13 10 6 4 5 7 11 12 11 11 11 10 8 7 7 7 9 12 14 16 17 17 19 23 23 23 25 26 28 28 28 29 28 28 25 22 21 21 21 20 19 18 17 17 16 16 18 21 24 29 32 30 28 27 27 27 26 26 23 19 16 15 15 14 16 15 13 13 12 13 14 12 10 11 13 14 16 14 13 14 12 12
6 8 8 7 7 6 4 4 6 5 2 7 11 7 5 8 5 2 1 3 6 9 12 12 12 12 11 8 6 7 6 8 10 14 18 19 19 23 27 28 28 29 29 29 27 28 30 29 30 30 28 26 22 20 20 19 18 18 18 16 17 18 19 20 24 29 31 31 30 29 29 28 27 26 23 18 16 16 16 16 15 14 13 12 13 14 12 11 12 14 15 17 17 13 13 14 12
7 8 6 4 6 7 4 4 4 6 5 8 12 10 10 10 4 4 2 3 6 9 11 12 12 11 10 8 7 7 7 8 9 13 18 20 20 23 27 28 28 28 29 30 29 29 29 29 31 33 32 30 26 21 19 20 19 18 18 17 18 19 20 20 20 26 30 31 31 30 30 29 28 28 26 22 19 17 17 16 15 16 14 13 16 16 14 14 13 15 15 16 20 17 12 13 14
10 9 8 4 4 7 6 4 5 8 7 8 11 11 12 15 14 8 5 5 5 9 9 9 11 10 9 8 8 8 8 9 10 13 15 16 17 21 24 26 27 27 28 29 30 29 28 28 30 33 33 32 29 23 18 18 18 18 18 17 17 19 21 22 22 27 30 31 31 31 29 28 27 26 26 25 22 19 17 16 16 16 15 15 18 17 16 16 15 17 17 15 18 20 16 14 14
12 11 9 6 6 6 6 4 2 6 8 9 12 12 12 15 18 16 10 7 7 9 9 9 10 10 9 8 8 8 10 10 11 15 15 12 15 19 20 21 23 25 26 27 28 28 29 29 30 32 34 33 29 24 19 18 18 19 20 19 20 21 22 23 26 30 31 31 32 32 30 27 23 21 22 22 23 22 17 16 16 16 16 17 18 18 18 18 16 18 21 18 17 19 19 18 15
9 10 9 8 8 7 7 7 2 2 7 10 12 13 14 15 17 19 14 8 8 10 12 12 12 12 10 10 11 11 12 11 11 15 16 15 19 21 20 20 20 21 24 25 26 28 30 31 31 33 34 32 31 28 25 22 21 21 21 22 23 22 22 23 25 28 30 31 33 33 31 27 22 19 19 20 21 22 19 17 18 17 17 18 19 21 20 18 17 17 19 20 19 17 17 18 15
9 9 8 8 9 6 5 6 2 3 5 9 10 12 15 15 15 19 17 11 10 12 14 15 16 14 11 13 15 13 12 10 9 13 15 16 21 23 23 23 22 21 23 26 27 29 31 30 31 33 32 31 34 34 31 28 26 25 24 23 21 19 19 21 23 24 25 27 28 30 31 28 24 21 21 23 22 22 20 18 19 18 18 19 20 22 21 19 19 18 17 17 19 19 16 16 15
9 8 7 7 7 3 2 4 2 3 5 8 8 11 15 15 15 19 19 14 12 14 16 16 16 14 13 14 13 12 12 11 11 13 14 15 19 22 23 25 25 25 25 26 28 29 29 30 32 33 31 32 36 37 36 36 34 32 28 24 21 19 18 18 20 20 21 23 24 25 28 27 26 24 25 28 25 24 23 20 21 21 20 21 22 22 22 21 20 20 20 18 17 17 17 17 18
8 8 8 7 7 6 5 5 6 4 3 4 7 10 12 13 14 16 19 17 13 14 16 16 15 14 16 15 12 13 13 13 12 14 15 15 16 18 21 25 25 26 26 25 27 29 30 31 33 34 34 36 37 38 40 40 37 35 31 25 19 18 17 16 17 19 21 23 23 23 26 28 27 27 27 28 27 25 23 22 23 25 25 24 24 24 24 24 23 22 23 22 19 17 15 17 19
11 11 11 7 9 10 8 4 5 3 3 3 7 11 11 12 15 15 16 18 16 15 15 16 15 14 15 13 13 14 14 13 14 15 16 16 17 16 20 25 25 26 28 29 30 31 32 33 34 35 36 37 37 38 40 38 34 32 27 21 17 18 19 17 18 22 23 23 24 26 27 26 26 28 26 26 27 25 23 23 24 25 26 24 23 25 25 26 26 24 25 25 23 22 18 16 18
12 13 15 10 10 11 7 6 4 4 6 3 2 9 8 6 13 14 13 14 15 13 14 17 17 16 15 13 13 14 14 13 14 16 16 16 19 18 17 20 22 25 29 31 32 33 34 35 34 34 36 37 38 38 38 36 34 31 26 23 22 22 22 23 26 30 30 29 29 28 25 23 24 25 24 23 25 24 22 24 24 24 24 23 25 27 24 24 26 28 29 27 26 27 23 17 17
11 11 13 10 10 11 8 8 7 5 5 1 3 8 8 5 10 13 11 12 13 11 12 16 16 15 15 15 13 12 13 14 13 15 16 16 19 19 17 17 20 26 31 32 32 33 34 35 35 35 36 37 38 37 36 36 35 31 29 29 28 25 24 27 32 36 33 30 30 29 25 24 24 23 23 23 24 23 21 23 24 23 22 23 27 28 24 23 26 30 32 31 28 28 26 21 20
8 10 14 11 11 11 10 9 7 4 3 1 4 6 9 10 10 10 12 14 15 13 13 14 13 13 14 14 14 13 14 13 11 11 13 15 17 18 19 18 19 23 28 30 30 32 33 34 35 36 36 37 38 37 36 37 36 34 33 32 31 29 29 29 30 31 29 25 28 31 28 26 25 23 24 24 24 25 23 21 23 23 22 23 25 26 25 24 25 28 32 33 30 27 26 25 23
6 13 16 13 11 10 10 9 6 3 3 7 8 5 6 12 6 5 10 14 15 14 14 13 12 13 15 16 16 13 12 10 9 11 13 15 17 18 19 20 20 21 23 27 29 31 32 32 34 35 36 36 36 36 36 38 39 37 34 32 32 33 34 31 26 25 27 25 27 31 30 28 27 24 24 24 25 26 24 22 21 23 23 23 23 24 25 25 25 26 30 32 32 30 28 27 25
6 13 13 9 7 6 7 9 6 4 6 12 12 10 8 12 6 6 8 9 11 10 10 12 14 16 17 17 15 10 8 8 10 12 14 16 18 20 19 19 21 22 24 27 27 29 30 30 32 33 35 35 35 37 37 38 39 38 35 34 34 35 33 29 24 22 25 27 29 30 30 30 28 28 27 25 24 24 24 22 21 23 23 22 23 24 25 26 26 26 29 31 34 35 30 27 28
8 10 10 7 4 3 3 4 5 6 10 15 17 15 12 9 5 4 4 3 6 7 8 10 13 16 15 13 11 9 9 9 10 11 13 16 18 19 18 18 22 24 25 26 26 27 28 29 30 31 34 34 34 36 37 38 39 39 41 39 38 38 32 26 24 24 24 27 31 30 30 30 29 31 30 26 24 24 23 23 22 22 22 22 23 23 25 26 26 25 26 27 30 34 30 26 30
10 8 8 7 3 2 3 3 5 9 11 12 15 16 15 11 4 2 2 2 1 5 7 9 10 11 11 9 9 10 9 8 9 9 10 12 14 14 14 16 20 21 22 25 27 27 27 29 29 29 32 32 32 34 36 38 38 39 43 40 37 39 33 26 27 28 26 29 32 29 26 26 26 28 27 25 25 24 22 23 23 22 22 23 23 23 24 24 25 25 24 24 26 29 29 26 27
9 8 10 9 5 5 7 7 6 9 8 4 5 12 14 14 12 9 7 4 3 5 6 7 8 8 8 9 8 7 6 6 7 8 8 8 9 10 11 14 16 18 22 26 26 26 26 28 28 28 31 32 32 33 34 36 38 40 42 39 38 38 33 30 30 29 28 29 31 29 25 24 24 26 27 28 28 26 22 22 23 23 22 22 23 23 23 23 25 25 24 25 26 26 26 27 28
12 12 12 11 8 8 10 9 6 8 10 2 4 4 8 10 13 16 19 18 15 15 13 11 10 11 12 11 10 7 6 7 7 7 8 7 9 11 12 14 15 17 22 25 25 24 24 26 27 29 33 32 30 32 33 34 36 38 39 39 40 36 31 30 30 30 29 29 28 29 30 28 26 27 31 33 34 30 26 24 22 23 22 21 22 22 23 23 24 25 25 26 27 26 25 27 28
14 13 12 11 8 7 8 9 8 7 8 4 6 3 6 6 3 3 8 10 11 12 14 14 14 14 14 13 11 10 10 10 9 9 10 10 12 13 12 14 16 18 22 25 26 24 22 24 26 29 33 30 26 29 31 31 32 35 36 38 39 36 31 30 30 31 32 29 27 28 31 30 28 29 33 36 37 34 32 28 23 22 23 22 21 21 21 22 22 23 25 26 27 26 26 27 27
9 9 11 11 8 7 4 2 5 6 5 5 6 6 6 5 5 2 4 2 3 5 7 10 13 13 12 11 11 10 10 11 10 9 11 12 12 11 10 13 16 19 22 25 27 25 23 23 23 27 31 28 24 27 30 30 31 31 33 36 37 35 33 31 31 32 33 31 28 27 29 31 31 32 33 35 36 36 36 34 28 23 23 23 23 22 21 21 22 23 23 25 26 25 24 27 28
7 8 9 6 4 6 4 1 2 5 7 7 6 6 6 8 12 12 12 9 8 8 8 10 11 10 9 8 8 9 9 9 10 9 10 10 10 9 10 13 17 22 24 24 26 25 23 22 22 24 27 26 26 28 30 31 30 28 30 34 35 34 36 37 36 34 32 30 28 28 28 29 33 35 34 35 36 36 36 36 33 26 22 23 24 22 22 22 22 23 23 24 25 24 23 26 27
6 9 9 5 2 1 2 5 4 5 8 7 7 11 10 8 7 5 9 13 10 9 10 13 11 9 9 9 9 9 9 9 10 10 8 8 8 10 12 15 21 24 23 23 23 23 23 22 22 23 25 26 27 27 29 30 29 28 30 32 35 36 37 39 38 35 31 28 29 31 29 29 34 36 36 37 36 36 35 35 35 30 23 22 24 22 22 23 22 23 23 23 24 23 22 24 25
1 5 9 6 2 3 4 5 5 6 7 6 9 13 10 10 8 2 5 6 6 7 7 8 9 10 9 9 10 9 9 9 7 5 5 6 7 9 11 15 20 22 20 20 20 20 22 23 23 24 26 27 27 25 27 29 29 30 32 33 35 36 36 36 36 35 32 30 33 35 33 34 36 34 35 37 36 35 35 34 35 34 28 23 23 24 22 22 23 23 23 23 23 23 23 24 25
1 1 6 3 2 4 5 5 5 6 8 7 9 11 8 9 11 9 7 7 7 8 7 6 9 11 9 7 7 8 8 7 3 2 4 5 6 8 13 17 19 19 19 19 19 19 21 22 23 25 26 27 27 27 27 28 28 30 32 32 32 33 34 34 34 33 32 33 36 37 36 37 35 31 33 35 35 34 35 35 35 36 34 26 23 25 23 22 24 23 23 23 22 23 24 25 25
6 6 7 5 3 2 2 4 5 5 8 10 10 10 7 6 7 10 12 13 11 11 9 8 9 10 9 7 7 7 8 5 2 2 4 4 5 11 18 19 17 18 20 21 20 20 21 22 22 23 24 26 27 28 27 27 27 27 29 30 30 30 32 33 33 32 33 34 37 37 37 37 34 33 34 35 35 35 36 36 36 36 37 30 26 26 24 23 25 24 23 23 23 24 25 25 26
9 9 10 9 8 5 4 7 5 2 7 9 9 10 7 2 2 5 9 10 8 9 10 8 7 8 8 7 6 6 7 6 4 3 3 4 7 12 14 13 13 17 20 21 19 19 21 22 22 22 23 24 23 23 24 25 25 26 28 28 28 28 29 31 32 33 35 37 38 38 38 36 35 36 37 36 36 36 36 37 36 36 38 34 31 30 27 24 24 24 24 23 23 24 25 26 27
Wind_Direction
342 342 342 341 346 333 260 282 230 103 286 89 101 174 137 85 355 167 158 154 160 146 170 98 144 149 131 335 324 334 325 308 349 347 52 65 140 155 152 147 152 151 150 150 150 149 144 146 145 138 136 136 133 138 134 131 133 127 122 108 94 92 111 112 110 118 113 114 116 114 110 107 103 100 97 93 96 101 101 102 104 100 96 93 89 89 90 91 91 90 89 88 88 89 89 91 90
340 340 342 341 346 328 210 286 265 123 211 133 119 346 102 144 219 177 156 147 92 101 145 152 154 164 354 340 298 279 244 353 8 31 61 101 140 156 157 150 156 153 153 153 151 151 149 154 151 143 145 149 146 150 145 140 140 130 128 117 104 99 108 110 115 127 120 116 119 118 116 114 112 112 105 98 100 104 104 102 102 99 96 93 89 87 88 91 92 92 91 88 88 89 91 92 92
339 341 343 338 344 17 142 247 260 150 219 58 110 118 130 185 182 157 118 82 87 107 132 136 154 175 243 237 234 274 183 51 46 78 87 134 147 163 162 152 158 155 157 155 154 154 152 158 156 149 150 158 156 156 155 149 143 135 136 130 118 101 106 120 136 139 125 119 120 120 118 115 115 117 115 112 106 97 101 103 101 99 96 94 91 89 89 93 95 96 95 90 87 89 92 93 94
341 341 343 332 266 147 252 240 338 229 158 44 95 132 178 201 153 123 96 97 104 127 136 149 162 125 269 264 5 292 255 72 96 88 121 154 155 158 159 156 159 157 160 160 159 157 154 160 158 154 152 158 159 161 167 160 153 148 140 134 126 110 118 131 141 139 131 126 127 122 117 114 112 111 111 110 105 96 100 103 102 101 98 97 95 93 92 94 97 97 98 95 89 89 93 95 95
343 341 348 337 250 359 332 136 103 253 59 70 47 133 186 193 136 133 128 129 126 213 158 180 180 98 271 297 350 281 73 90 116 117 139 152 149 152 158 157 158 161 163 163 164 160 163 165 159 159 154 155 157 160 171 172 166 158 148 142 134 124 130 132 119 123 127 128 131 127 119 114 110 106 100 99 103 102 103 103 104 103 101 100 99 97 95 95 97 98 99 99 95 93 96 97 96
345 336 3 31 105 4 224 181 160 140 50 334 6 112 170 159 145 145 144 154 193 278 276 246 221 141 206 152 255 300 42 76 126 136 150 154 154 155 156 157 161 163 164 167 167 164 171 171 167 165 155 155 152 145 158 170 173 169 164 151 139 137 138 142 128 112 114 121 129 130 126 121 118 114 107 108 109 107 105 106 108 107 104 102 102 101 98 97 96 98 99 100 99 99 100 98 97
349 332 8 50 115 282 253 171 142 124 82 320 352 70 150 146 147 153 161 176 197 248 240 253 259 193 181 123 214 192 112 89 115 129 147 154 155 157 157 159 163 164 166 170 169 168 174 173 170 170 157 154 150 144 145 153 163 170 165 147 148 159 149 149 144 132 139 146 147 138 132 129 128 118 114 117 114 111 110 110 110 109 108 105 105 102 100 99 97 99 100 103 102 103 104 101 100
352 352 315 314 303 346 267 156 124 84 100 253 311 347 135 141 153 167 171 187 191 199 213 226 250 242 137 144 233 142 170 197 150 132 144 155 157 159 160 162 164 166 170 170 172 173 176 173 171 172 159 156 153 152 152 150 151 154 157 150 153 166 154 147 145 149 170 172 158 145 141 137 129 117 116 122 119 117 114 112 112 110 112 109 107 105 103 102 101 102 102 106 107 107 109 106 102
3 17 246 289 290 228 195 172 127 94 146 210 242 238 185 144 157 177 177 193 227 217 216 181 251 270 126 184 238 117 181 194 170 149 150 158 160 161 162 168 168 167 174 173 176 175 178 176 175 174 161 162 160 157 157 154 154 152 157 157 151 152 151 147 146 158 181 178 159 148 148 140 127 122 124 129 127 123 119 116 114 111 113 111 109 108 107 107 106 106 107 112 115 113 113 113 110
17 27 314 274 266 233 194 195 148 143 161 214 244 179 182 159 163 186 186 193 160 212 194 86 256 275 250 194 200 110 171 173 165 151 154 160 162 165 164 170 171 171 178 177 177 177 182 182 181 176 167 166 163 162 163 163 161 157 160 162 155 153 160 154 150 161 165 156 154 150 146 140 129 128 130 131 129 124 124 125 119 114 113 112 113 112 111 111 111 112 112 117 124 122 119 119 115
359 46 338 242 234 229 211 200 168 143 143 214 231 169 178 170 171 177 192 193 154 224 163 173 243 235 248 253 151 99 118 166 167 157 160 164 164 167 167 171 175 177 184 180 178 181 184 188 186 178 172 171 171 174 172 170 165 161 164 165 163 161 164 161 158 161 160 152 151 152 147 145 140 137 138 135 132 125 126 129 125 120 116 115 117 120 120 118 118 119 120 125 131 131 128 125 119
254 58 244 242 234 235 236 210 178 144 150 193 181 157 172 176 180 182 196 198 168 213 196 192 258 68 223 260 104 102 118 184 172 163 162 165 168 170 170 174 177 180 188 184 179 182 185 188 188 182 177 176 181 186 178 170 166 169 169 167 171 167 165 168 172 169 172 182 166 161 161 151 152 152 149 145 140 132 130 130 130 132 127 122 120 128 133 126 122 126 132 135 137 139 138 133 129
235 119 237 237 245 249 226 220 175 151 179 189 166 140 163 181 196 200 191 190 185 206 203 184 156 293 249 305 106 150 193 188 169 164 164 167 171 171 173 176 180 181 187 186 183 185 186 186 188 187 182 181 187 191 184 171 170 177 174 172 176 172 171 174 183 183 184 189 172 177 183 161 159 161 155 153 149 142 147 145 138 142 139 127 127 140 142 135 130 134 145 151 148 146 144 137 134
271 152 249 235 108 243 213 237 180 200 188 156 134 133 167 197 215 203 186 198 198 192 135 138 176 249 253 264 179 165 155 162 163 165 167 172 172 175 178 180 182 182 186 186 188 188 189 189 189 191 187 184 188 192 193 184 179 181 178 176 178 179 182 183 186 187 188 184 175 188 192 176 173 170 162 161 161 160 167 166 152 151 154 146 152 158 151 146 143 147 158 166 167 158 153 146 140
261 145 250 232 189 211 206 278 210 217 179 142 144 144 173 219 226 196 210 222 180 103 81 142 213 252 229 240 151 91 115 149 159 164 168 175 176 180 182 186 186 185 188 187 191 192 193 194 192 193 190 189 192 193 196 198 196 188 185 182 182 188 191 193 193 187 187 185 181 192 200 201 200 189 181 177 180 182 180 177 175 176 175 175 181 175 163 164 161 165 175 182 185 176 169 158 150
266 167 181 219 209 206 195 224 209 221 164 132 134 146 181 180 187 211 236 295 107 110 191 174 193 279 319 290 51 44 118 153 157 161 166 174 178 186 188 192 191 190 193 190 194 195 196 197 196 197 193 193 195 197 197 200 207 197 192 191 189 195 199 201 202 194 191 191 190 196 207 218 220 209 203 201 199 195 190 188 193 200 195 194 194 190 183 182 181 185 188 190 192 188 182 170 157
247 221 213 216 204 199 186 188 186 213 124 132 149 174 195 175 172 239 57 265 223 140 208 192 165 253 278 37 43 22 151 154 157 161 165 174 180 190 195 197 196 196 197 196 198 196 198 200 199 201 199 198 197 201 201 201 211 206 199 200 198 202 205 204 206 203 199 200 200 201 207 215 219 218 212 210 208 206 205 203 205 211 214 211 202 201 200 196 194 196 197 196 194 192 186 178 165
226 222 219 220 199 187 181 192 198 336 67 147 168 192 212 192 166 174 162 205 214 189 211 207 201 228 237 238 14 76 154 158 163 167 172 180 186 194 198 200 200 200 200 201 202 199 200 201 202 203 202 203 201 202 202 204 212 208 203 204 204 206 209 209 211 210 206 208 210 209 212 212 214 218 219 216 214 216 218 220 223 229 232 230 220 212 211 213 211 207 206 201 196 194 188 181 183
232 222 231 219 183 163 149 203 194 359 33 125 163 197 226 229 153 166 210 202 191 226 219 204 227 225 212 212 212 161 160 168 173 178 184 188 193 199 201 203 204 204 204 204 205 203 203 203 204 205 205 206 207 206 204 206 210 208 206 207 208 210 212 212 214 216 211 211 213 214 215 213 215 221 224 226 228 229 230 232 235 240 243 240 234 225 221 224 225 225 218 205 199 198 194 191 196
243 235 241 217 171 159 137 209 177 124 25 103 157 163 220 254 110 169 224 220 198 231 230 206 226 228 206 186 180 173 170 178 186 192 195 197 201 205 208 208 207 207 208 207 207 206 206 207 205 205 208 208 209 211 208 207 210 210 210 211 210 211 214 212 214 219 217 215 215 215 216 216 222 227 229 231 234 236 236 237 238 242 245 245 240 234 229 231 233 232 224 208 203 202 203 205 211
164 234 251 112 164 182 126 186 168 152 340 16 143 147 210 196 128 201 217 228 224 233 237 228 234 235 198 168 170 178 178 183 193 201 204 205 206 209 214 215 213 213 212 212 210 209 208 209 209 208 210 211 211 211 212 211 211 212 212 212 211 210 211 211 213 218 221 221 218 218 221 222 224 229 230 231 233 236 238 239 239 239 242 244 242 240 235 238 240 233 225 212 209 208 209 213 212
174 211 322 52 174 178 88 130 147 144 145 160 155 165 183 135 189 218 215 229 240 242 250 242 245 257 172 161 172 179 184 188 194 204 209 210 209 211 215 216 217 217 216 215 213 213 212 211 212 211 213 216 214 212 215 216 214 214 215 213 211 212 212 210 211 214 219 221 221 223 225 226 226 228 230 231 233 236 238 239 241 241 243 246 244 244 242 245 244 235 227 216 213 214 213 219 217
216 191 119 198 229 156 75 113 150 167 182 177 172 161 133 176 223 214 220 236 250 54 31 324 296 323 103 156 170 180 189 192 196 204 207 208 209 210 211 211 214 215 217 219 217 217 216 214 214 214 215 218 217 215 215 219 220 217 218 218 215 215 213 213 214 215 217 221 224 225 224 227 230 230 231 233 236 238 238 239 241 243 246 248 246 245 245 248 246 234 228 221 219 220 218 225 227
241 211 156 185 233 232 84 88 173 193 205 61 95 160 185 212 231 170 224 243 248 146 79 8 349 12 147 171 178 190 195 197 202 205 206 209 210 209 209 210 212 214 218 220 219 219 219 216 215 217 217 218 219 217 216 219 224 222 221 222 220 219 218 218 219 219 220 223 228 229 225 226 229 230 231 234 236 237 238 237 239 243 246 248 249 247 247 250 249 236 230 229 225 223 223 227 231
231 222 152 161 215 207 112 94 178 202 220 84 157 224 228 216 264 260 243 252 250 218 177 259 316 214 198 201 199 201 201 204 208 207 207 210 211 209 209 211 214 216 218 219 218 220 220 217 214 217 219 219 218 218 218 220 223 225 225 223 222 221 222 224 224 224 225 224 227 232 230 226 227 228 228 231 233 236 237 236 237 242 246 250 252 252 251 252 252 241 234 231 225 220 223 226 231
214 210 158 164 177 158 162 183 180 224 215 148 225 253 248 145 5 258 246 256 257 186 232 232 234 241 230 216 210 209 210 212 210 208 208 208 208 209 211 212 215 218 218 218 219 220 220 218 216 217 219 220 220 219 220 220 221 225 227 228 227 224 223 225 226 225 227 227 226 231 234 230 229 230 231 230 232 236 237 240 242 241 245 248 251 253 252 250 248 242 236 231 224 218 221 225 231
178 187 168 177 173 151 177 222 177 228 229 191 252 272 270 126 228 244 233 245 266 228 238 219 225 245 238 226 218 213 218 221 213 208 208 207 210 214 214 213 217 219 217 216 218 220 220 218 219 218 218 220 221 221 223 224 223 225 227 230 232 231 227 225 226 226 227 229 228 229 232 232 231 234 235 233 235 240 240 246 247 246 247 248 249 251 252 249 243 238 234 230 222 217 221 227 229
122 152 171 185 183 193 199 224 193 198 237 191 252 280 275 153 209 242 233 182 118 246 247 221 226 242 239 232 222 214 223 224 212 208 211 211 213 214 213 215 217 216 216 218 216 215 218 218 220 221 219 220 221 221 225 228 227 227 229 231 233 234 232 228 227 229 229 230 231 232 233 233 233 235 237 236 239 240 241 246 247 248 251 248 248 249 251 250 242 236 235 230 222 216 220 227 228
130 159 214 194 194 225 206 206 194 202 219 152 200 277 256 223 223 236 239 237 223 251 255 241 235 241 238 230 223 221 225 218 207 214 221 220 218 215 217 219 217 217 220 222 219 217 218 216 218 222 220 221 223 221 223 227 226 227 229 231 232 232 232 231 230 230 232 233 235 237 237 235 233 236 239 240 241 241 242 244 243 248 251 249 250 250 250 251 245 238 237 232 225 219 222 228 231
162 170 255 224 233 235 191 174 170 194 204 141 197 263 253 237 229 221 230 238 236 248 250 245 243 243 236 223 225 228 222 216 215 221 226 227 225 222 224 224 221 223 223 223 225 225 223 219 218 220 220 220 222 222 223 226 225 225 227 227 229 232 233 234 235 234 234 235 237 242 242 238 235 237 239 240 242 242 242 243 243 246 247 245 248 251 252 254 250 240 234 230 224 220 222 228 234
182 158 247 229 238 219 150 162 180 192 192 142 207 254 262 257 237 202 212 224 231 249 252 251 248 245 242 227 226 232 224 222 227 231 232 232 231 231 233 231 228 228 227 229 233 232 230 229 226 224 223 220 221 223 223 225 227 227 227 228 227 230 234 236 238 238 238 239 241 245 246 244 242 240 238 238 241 243 243 244 244 243 241 241 248 252 252 251 249 240 230 225 220 219 222 227 235
184 190 217 210 227 199 135 165 192 203 170 161 210 246 258 268 265 210 194 200 221 245 251 254 254 252 250 240 232 238 235 230 236 240 241 239 235 238 241 238 235 235 235 236 236 235 233 233 232 232 230 225 221 223 225 225 227 230 230 230 229 230 233 234 236 239 241 242 243 246 248 249 248 245 240 235 238 241 241 242 241 241 239 239 246 250 247 242 243 240 230 223 217 218 222 226 235
190 212 218 189 204 211 157 161 199 215 150 180 218 247 248 264 273 141 148 213 213 242 251 254 256 256 256 251 244 246 248 241 239 240 242 242 237 241 246 245 242 242 242 240 237 237 235 233 234 235 235 232 225 222 225 226 227 230 231 231 232 231 232 232 234 238 242 243 244 246 248 250 252 249 242 235 236 238 239 241 240 239 238 238 245 248 241 235 238 238 233 227 221 218 224 229 234
190 207 221 180 192 210 185 164 183 197 208 209 216 236 248 256 249 132 128 201 206 235 248 255 257 258 259 259 255 250 252 249 244 240 241 242 240 243 249 249 247 245 246 245 242 241 239 235 236 238 237 235 231 224 223 227 228 230 232 233 234 232 233 234 233 236 240 244 245 246 248 249 250 249 244 238 237 238 239 242 240 239 238 241 247 245 236 232 233 235 232 229 226 222 225 233 236
187 187 205 198 188 209 205 180 160 181 214 231 217 226 241 254 260 235 192 176 214 243 248 259 262 262 263 261 260 253 251 249 248 248 245 241 241 245 248 249 250 247 247 248 246 243 240 237 237 239 238 234 232 227 223 228 229 231 233 233 233 233 234 235 234 236 239 242 244 246 246 245 246 246 243 238 238 239 239 240 240 239 237 241 244 238 231 228 228 231 230 227 228 228 227 233 238
185 182 199 203 191 209 207 187 148 186 216 229 225 233 232 242 258 257 238 206 229 255 258 263 262 261 262 259 260 253 252 251 247 253 253 244 245 249 248 246 249 250 249 249 247 243 240 238 237 239 239 233 228 222 221 225 227 228 230 230 229 229 230 232 235 237 238 239 243 245 244 241 239 239 237 234 236 238 237 237 238 237 235 235 234 228 227 226 223 228 230 227 226 230 233 234 236
176 178 199 205 205 214 198 189 143 177 233 239 232 242 242 239 254 263 259 229 230 251 254 255 254 255 255 256 259 254 255 256 245 251 255 253 255 255 251 247 245 246 248 246 242 242 242 239 236 238 238 232 226 220 217 218 220 222 223 224 226 227 229 230 232 234 235 237 240 243 243 239 235 231 230 230 233 237 235 233 234 234 231 229 228 227 225 224 223 226 231 232 229 228 232 234 233
182 184 198 203 214 219 189 190 137 126 232 254 243 249 252 243 247 260 262 245 239 248 250 253 254 255 253 254 257 256 259 260 251 254 252 246 252 253 250 249 244 239 242 242 240 242 244 239 236 238 236 230 229 226 220 218 221 221 220 223 226 227 230 230 231 232 233 235 237 240 241 238 234 229 231 234 233 234 234 230 229 229 227 225 226 227 226 225 225 224 224 228 230 227 228 232 228
190 190 198 208 204 185 176 194 172 164 225 261 257 258 260 250 244 252 259 253 244 246 248 254 257 256 253 251 254 255 256 258 257 261 256 243 245 249 247 247 244 241 242 242 242 242 242 239 238 238 234 232 233 231 226 225 227 228 227 227 226 225 228 231 235 235 235 236 235 236 238 236 233 230 233 237 235 232 232 228 224 225 223 222 222 223 224 223 222 222 222 221 223 224 226 230 224
200 192 201 214 170 170 227 203 181 198 234 288 290 278 269 259 247 245 253 251 243 242 245 251 255 253 253 252 254 257 257 259 260 261 263 255 244 239 239 243 244 243 240 238 238 239 238 239 240 240 237 235 235 234 233 230 229 231 230 228 226 227 231 232 235 237 235 236 234 232 235 234 233 232 233 234 233 231 229 224 223 224 224 222 222 222 222 222 221 219 220 219 216 215 218 224 222
213 201 207 206 161 190 229 172 153 210 241 274 295 286 273 255 243 239 245 243 235 236 239 244 249 250 253 252 248 255 258 258 261 262 264 263 254 241 238 243 243 241 241 240 239 240 241 243 243 243 240 236 236 237 235 230 225 227 226 223 227 230 231 229 229 231 229 228 229 229 231 230 230 231 230 229 230 230 225 221 220 224 227 222 220 223 224 225 224 220 220 218 216 215 216 220 220
217 209 213 205 168 190 198 146 158 237 238 204 251 278 277 243 236 234 237 239 231 225 232 240 245 248 253 250 242 246 251 250 252 257 259 262 262 258 248 243 240 241 245 247 246 247 247 247 246 244 241 238 238 238 236 229 223 221 216 212 216 220 222 221 223 227 227 224 226 227 226 226 226 229 227 225 227 228 225 221 219 223 225 220 221 227 226 224 223 224 224 220 218 220 220 221 220
226 199 197 194 173 181 175 170 195 238 257 151 156 260 277 265 249 240 230 240 238 219 224 236 241 246 250 252 248 242 246 246 243 248 254 259 263 263 259 249 242 245 251 252 251 250 249 247 246 244 242 240 239 238 235 230 223 218 216 214 216 216 217 221 226 231 230 227 229 229 226 224 224 226 227 224 224 225 226 224 222 224 224 223 228 230 226 221 222 227 228 224 222 221 220 223 225
223 151 161 176 176 186 184 190 213 234 282 264 194 237 279 275 264 241 223 238 244 228 224 230 233 243 249 253 250 240 241 244 242 247 253 256 258 259 260 256 249 250 254 254 252 252 250 248 246 244 243 242 240 237 234 231 225 219 218 218 219 220 222 226 229 232 232 227 229 231 229 227 225 225 227 225 225 225 226 226 224 224 226 226 228 228 226 223 221 225 228 227 224 221 218 222 228
202 139 161 178 176 183 187 200 221 216 251 254 220 184 260 269 255 204 213 234 245 236 230 230 229 239 245 248 248 241 241 245 248 255 256 256 256 257 258 259 258 255 255 256 255 255 253 249 246 243 242 242 240 238 235 234 231 225 221 219 220 223 226 228 228 230 231 228 231 233 232 231 229 227 226 227 228 227 226 228 226 224 226 226 224 225 227 226 222 222 226 228 226 225 223 223 227
175 145 153 154 154 166 186 208 209 184 225 246 228 190 225 271 264 199 203 223 240 237 232 233 231 235 239 244 252 254 255 254 247 249 253 255 256 258 260 262 263 262 262 262 259 256 253 250 246 242 241 240 239 239 237 235 234 229 225 223 223 225 226 225 223 225 228 229 233 235 233 232 230 230 230 228 229 229 227 229 228 226 226 225 224 224 226 227 226 224 225 229 231 230 226 223 227
128 136 131 116 116 119 161 207 198 204 233 241 232 206 209 264 276 199 196 218 238 233 227 230 231 237 243 249 261 264 259 254 248 248 251 254 257 260 263 264 265 266 266 265 260 255 252 248 244 242 242 240 238 239 238 236 233 230 229 228 227 229 225 220 219 221 222 226 231 232 232 232 231 232 231 229 230 230 228 229 229 229 228 226 226 226 227 227 228 227 225 228 232 231 227 223 228
129 132 137 142 141 145 178 199 192 214 236 243 232 212 210 238 246 102 59 66 220 242 236 239 238 242 249 251 256 257 252 250 250 252 253 255 260 262 261 262 264 265 266 265 261 256 251 247 242 240 241 238 236 237 237 235 232 231 233 230 229 232 228 221 222 224 222 225 229 228 227 228 227 229 228 226 229 227 225 228 229 230 229 227 227 228 228 228 228 228 227 226 228 229 227 224 228
156 151 163 177 177 186 205 213 201 214 241 263 210 206 217 242 252 256 264 251 248 259 248 250 255 256 256 248 244 242 239 248 253 257 260 259 261 260 258 260 262 264 266 268 265 259 252 247 241 237 240 239 236 235 236 235 232 232 233 231 231 233 230 226 228 230 228 228 230 227 223 222 223 225 224 224 228 225 222 225 226 227 228 228 228 228 228 228 228 229 228 228 227 227 225 224 227
179 176 185 194 190 199 213 216 207 224 243 242 102 189 234 260 264 250 244 244 246 246 242 245 256 260 262 260 257 256 254 254 253 253 258 258 257 256 257 262 263 263 266 269 268 263 256 249 242 239 242 241 236 235 235 234 233 233 234 233 234 233 229 229 231 233 233 232 231 229 228 226 225 227 229 231 234 231 225 224 224 227 229 230 229 229 230 229 227 228 227 228 229 228 226 226 228
189 189 199 202 194 202 213 213 207 217 235 195 137 177 216 228 263 207 217 240 247 245 245 247 254 257 262 268 272 275 272 264 258 256 258 260 260 260 262 264 263 263 266 268 268 265 260 253 244 240 243 241 234 235 235 233 233 234 233 233 234 232 230 231 232 235 236 234 232 232 233 232 230 232 237 240 240 237 233 232 228 227 229 230 230 230 230 228 226 227 228 230 231 230 229 229 231
193 189 202 211 205 203 208 219 199 195 218 202 187 211 215 227 286 256 169 159 218 233 242 244 251 256 261 269 270 269 267 264 264 262 261 263 264 269 269 267 268 268 269 268 267 265 262 257 250 244 247 243 236 238 238 235 235 234 233 234 233 232 231 231 232 235 237 236 234 234 236 236 237 239 241 242 242 240 239 238 234 230 229 229 229 229 229 228 227 227 229 231 232 231 230 230 233
178 190 201 204 206 211 216 254 135 172 219 223 197 221 247 268 282 260 229 222 213 211 227 238 245 250 257 263 259 256 257 257 260 259 262 271 279 285 276 268 272 272 271 270 268 267 266 262 255 250 250 246 242 243 242 239 236 232 233 235 234 232 232 234 234 235 237 237 236 238 238 239 242 243 243 243 244 243 242 241 238 234 231 229 229 229 229 229 229 228 229 232 232 231 231 232 233
164 194 180 128 43 274 236 238 202 184 226 230 199 217 229 235 262 249 214 222 213 197 224 241 245 245 251 257 254 255 254 251 256 262 273 285 282 278 272 271 275 274 273 273 270 269 270 267 260 254 253 250 248 247 244 241 237 233 234 235 235 234 234 236 237 237 237 237 238 240 239 240 244 245 245 245 245 244 244 243 241 236 231 230 230 228 229 230 229 229 231 233 234 232 231 232 233
193 198 161 136 187 193 187 226 210 193 223 237 223 227 226 218 232 201 156 191 190 186 213 233 243 243 242 250 258 263 263 260 263 272 281 282 275 274 273 274 278 278 276 277 276 273 271 267 262 258 255 255 253 250 247 243 238 237 238 238 237 236 236 237 238 238 237 237 241 243 242 244 245 245 246 246 245 244 244 243 241 238 234 231 230 228 228 230 229 229 231 233 234 233 231 232 234
350 198 165 156 230 196 190 206 204 203 220 239 240 234 225 221 231 232 225 229 214 206 209 213 235 250 253 259 267 268 268 270 289 308 280 279 283 283 278 275 277 280 281 281 280 277 274 271 266 261 258 256 253 250 248 244 240 239 240 240 238 237 237 238 238 238 237 238 242 244 244 245 245 243 245 247 246 245 244 243 242 241 238 233 229 228 228 229 229 228 230 232 233 232 231 231 234
165 176 176 179 201 203 217 208 207 222 222 229 243 244 237 226 219 216 227 240 231 220 228 230 238 257 266 267 263 264 273 282 305 306 290 299 290 278 279 281 285 289 290 288 283 278 276 273 268 264 261 258 253 249 246 243 240 239 240 240 239 238 239 240 240 240 240 241 244 245 246 245 245 245 246 247 247 246 245 244 243 243 241 236 232 232 230 229 229 229 230 231 232 232 231 231 233
178 190 184 187 191 182 205 213 201 218 226 227 241 251 249 214 167 199 212 229 230 221 231 238 239 249 253 256 259 266 283 286 283 278 281 296 281 276 288 299 301 300 298 295 291 285 280 277 274 271 265 260 255 250 246 243 242 242 243 242 240 239 241 241 241 242 243 245 246 246 247 246 245 247 248 248 248 246 245 244 242 242 242 238 237 236 231 227 228 228 229 230 230 231 231 232 233
Height
823 822 820 819 817 818 818 818 832 836 835 847 851 851 849 847 848 846 846 846 846 845 843 844 843 844 847 848 845 843 843 844 844 847 851 850 849 851 851 852 853 854 855 856 857 857 858 858 859 859 860 861 861 862 862 862 863 863 862 862 863 863 863 863 863 863 864 864 865 865 865 865 865 866 866 865 865 866 865 865 866 865 865 865 865 865 864 864 864 864 863 863 863 863 864 863 864
823 822 819 819 817 819 822 821 837 842 840 851 850 849 849 848 850 846 844 844 844 844 844 843 843 845 845 845 843 843 843 842 842 844 848 849 850 851 851 852 854 855 856 857 857 858 858 859 859 859 860 861 862 862 862 863 863 863 863 863 863 864 864 864 864 864 864 865 865 865 866 866 866 866 866 867 866 866 866 866 866 866 866 866 866 866 865 865 865 865 865 864 864 865 865 865 865
823 822 819 819 817 818 823 825 837 844 846 851 847 847 849 849 848 843 842 843 844 845 844 845 846 846 846 846 845 845 844 841 843 844 847 850 850 851 852 853 854 855 856 857 858 859 859 859 859 860 860 861 861 862 863 863 864 864 864 864 864 864 865 865 865 865 865 865 866 866 867 867 867 867 867 867 867 867 867 867 867 867 867 867 867 867 866 866 866 866 866 866 866 866 866 866 866
823 822 820 819 820 821 826 833 838 841 847 850 847 847 848 846 844 844 845 845 846 845 845 846 846 846 846 847 845 845 844 842 843 844 847 850 849 850 852 853 854 856 857 857 858 859 859 859 860 860 861 861 862 862 863 863 864 864 864 865 865 865 865 866 865 866 866 866 867 867 868 868 868 868 868 868 868 868 868 868 868 868 868 868 868 867 867 867 867 867 867 867 867 867 867 867 867
823 822 821 818 823 827 831 840 840 840 846 846 844 845 844 843 844 846 847 847 847 847 846 845 846 846 845 846 844 844 843 842 843 844 846 848 850 851 852 853 855 856 857 858 858 859 859 859 860 861 861 861 862 862 863 863 864 864 865 865 865 865 866 866 866 866 867 867 868 868 869 869 869 869 869 869 869 869 869 869 869 869 869 869 869 869 868 868 868 868 868 868 868 868 868 868 868
823 822 820 819 825 829 834 842 842 842 844 842 842 843 842 842 844 846 848 848 848 847 847 846 845 845 845 844 843 842 841 842 844 844 846 848 850 851 852 854 855 856 857 858 859 859 859 859 860 861 861 862 862 863 863 864 864 864 865 866 866 866 866 867 867 868 868 868 868 869 869 870 870 870 870 870 870 870 870 869 869 869 869 869 869 869 869 869 869 869 869 869 869 869 869 869 869
824 823 823 824 828 830 836 842 841 842 844 844 843 842 841 842 844 846 848 849 849 848 847 847 843 844 845 843 843 841 841 843 843 844 846 847 850 851 852 854 855 856 857 858 859 860 860 860 860 861 862 862 863 863 863 864 864 865 865 866 867 867 867 868 868 869 869 869 869 869 870 870 870 870 870 870 870 870 870 870 870 870 870 870 870 870 870 870 870 870 870 870 870 870 870 870 869
825 826 827 831 836 837 840 842 842 843 845 846 845 843 842 842 845 845 848 849 848 848 847 847 844 846 845 843 843 841 841 843 843 844 845 847 849 851 853 854 855 856 857 858 859 860 860 860 861 861 862 862 863 863 864 864 864 865 866 867 867 868 868 869 869 870 870 870 870 870 870 870 870 870 871 871 871 871 871 871 871 871 871 871 871 871 871 871 871 871 871 871 871 870 870 870 870
825 828 831 835 841 843 844 844 845 845 845 845 844 845 845 844 845 845 847 848 848 848 847 846 846 848 844 843 843 840 841 843 843 844 845 847 849 851 853 854 855 856 857 858 859 860 861 861 861 862 862 862 863 863 864 864 865 865 866 867 868 869 869 869 870 870 870 870 870 870 870 871 871 871 871 871 871 871 871 872 872 872 872 872 872 871 871 871 871 871 871 871 871 871 871 871 871
827 831 836 839 843 847 848 845 845 846 844 843 843 844 845 845 846 845 846 847 848 847 847 846 848 848 845 843 842 840 841 842 843 844 845 847 849 850 852 854 855 856 857 858 860 861 861 862 862 862 863 863 863 863 864 865 865 865 866 867 868 869 869 870 870 871 870 870 870 870 870 871 871 871 871 871 872 872 872 872 872 872 872 872 872 872 872 872 872 872 872 871 871 871 871 871 871
833 835 838 844 847 849 848 844 843 844 843 843 842 843 844 844 845 846 846 847 847 847 847 848 848 846 846 844 841 840 841 842 843 844 845 847 848 850 851 853 855 856 857 857 859 860 861 862 863 863 863 864 864 864 864 865 866 866 867 867 868 869 870 870 870 871 870 870 870 871 871 871 872 872 872 872 872 872 873 873 873 873 873 873 872 872 872 872 872 872 872 872 871 871 871 871 871
837 840 839 846 848 845 844 842 843 843 844 843 842 842 843 844 845 845 846 846 846 847 846 846 846 844 846 845 840 840 842 843 844 845 846 847 849 850 851 853 854 855 856 857 858 860 861 862 863 863 864 864 864 864 865 865 866 866 867 867 868 868 869 869 870 870 870 871 871 871 872 872 872 872 872 873 873 873 873 873 873 873 873 873 873 872 872 872 872 872 872 872 871 871 871 871 871
837 841 841 847 846 843 845 844 844 846 845 841 839 841 843 844 844 841 843 845 845 847 845 843 844 844 845 843 840 840 842 843 844 845 846 848 849 850 851 852 853 854 855 856 858 859 860 861 862 863 864 864 864 865 865 865 866 866 867 867 867 868 868 869 869 870 870 871 871 872 872 872 872 872 873 873 873 873 874 874 873 873 873 873 872 872 872 872 872 872 872 871 871 871 871 871 871
835 838 840 846 847 846 847 846 846 846 842 837 838 842 843 843 841 839 841 845 844 844 844 842 842 845 845 842 840 839 840 843 844 846 847 849 849 850 851 851 852 853 854 856 857 858 859 860 861 863 863 864 865 865 865 865 865 866 866 866 867 867 868 868 869 869 870 871 871 872 872 872 873 873 873 873 873 873 873 874 873 873 873 873 872 872 871 871 871 871 871 871 871 871 871 871 872
834 837 841 846 848 848 848 847 846 844 838 835 840 842 843 843 841 841 840 842 843 841 843 844 843 845 844 841 841 839 840 843 845 847 848 849 850 851 851 852 852 853 854 855 856 857 858 859 860 861 862 863 864 865 865 865 865 865 865 866 867 867 868 868 868 869 870 871 871 872 872 873 873 873 873 873 873 873 873 873 873 873 873 872 872 871 871 871 871 870 871 871 871 871 872 872 872
833 835 843 847 849 850 848 847 847 845 837 836 842 843 843 842 842 842 840 840 842 842 843 843 844 844 841 840 840 840 841 843 844 847 848 850 851 851 852 852 852 853 853 854 855 856 857 858 859 860 861 862 863 864 865 865 865 865 865 866 866 867 868 868 868 869 870 870 871 872 872 873 873 873 873 873 873 873 873 873 873 872 872 872 871 871 870 870 870 870 871 871 871 872 872 872 872
833 835 843 846 848 849 846 844 845 842 836 837 843 843 841 842 842 842 840 840 841 843 843 842 842 843 841 840 840 841 842 842 844 846 848 849 850 851 852 852 852 852 853 853 854 855 856 857 858 859 860 861 862 863 864 864 865 865 866 866 866 867 867 868 868 869 869 870 871 871 872 872 873 873 873 873 873 873 873 872 872 872 871 871 870 870 870 870 870 871 871 871 872 872 872 873 873
836 838 843 843 843 843 839 838 839 837 836 838 841 841 839 840 842 841 841 841 841 843 842 841 841 841 840 840 841 841 842 843 844 845 847 848 849 850 851 851 852 852 852 853 853 854 855 856 857 858 859 860 861 862 862 863 864 864 865 866 866 867 867 867 868 868 869 869 870 870 871 872 872 872 872 872 872 872 872 872 871 871 871 871 870 870 870 870 871 871 871 872 872 873 873 873 873
838 840 843 840 837 836 834 834 835 836 837 837 839 841 840 839 839 840 841 841 842 843 841 840 841 839 839 840 841 842 842 843 844 845 846 846 848 848 849 850 850 851 851 852 852 853 853 854 855 857 858 858 859 860 861 862 863 864 865 865 866 866 866 867 867 867 867 868 868 869 870 871 871 871 871 871 871 871 871 871 871 870 870 870 870 870 870 871 871 871 872 872 872 873 873 874 874
839 841 843 838 833 833 833 834 835 837 837 837 839 841 842 840 839 840 841 841 842 841 837 838 840 837 836 838 840 842 842 843 844 844 844 845 846 847 847 848 849 849 850 851 851 852 852 853 854 855 856 857 858 859 859 860 862 863 864 864 865 865 865 865 866 866 866 867 867 868 868 868 868 869 869 870 870 870 870 870 870 870 870 870 870 870 870 870 871 871 872 872 872 873 873 874 874
841 841 840 836 835 835 835 835 835 837 837 836 838 842 842 840 840 840 840 841 841 836 832 832 833 831 832 836 838 840 841 842 843 843 843 843 844 845 845 846 847 848 849 850 850 850 851 852 852 853 854 855 856 857 858 859 860 861 862 862 863 863 864 864 865 865 865 865 865 866 866 866 867 867 867 868 868 868 868 869 869 869 869 869 869 870 870 870 871 871 872 872 872 873 873 874 874
840 841 838 836 837 838 837 836 836 838 838 838 839 840 840 839 840 839 839 840 835 829 828 827 827 827 829 833 836 838 840 840 841 841 841 842 842 843 844 844 846 847 848 848 848 849 850 850 851 852 853 853 854 855 856 857 858 859 859 860 861 861 862 862 863 863 864 864 864 864 865 865 865 865 866 866 866 867 867 867 867 868 868 868 869 869 869 870 870 871 871 872 872 872 873 873 873
838 840 840 838 837 838 839 838 838 838 837 838 838 837 837 839 839 837 838 835 828 827 828 827 827 828 829 831 834 836 837 838 838 838 838 839 839 840 841 842 843 844 846 846 847 848 848 849 850 850 851 852 852 854 855 855 856 857 857 858 858 859 860 861 861 862 862 862 862 862 863 864 864 864 864 864 865 865 866 866 866 866 867 867 868 868 869 869 870 870 871 871 871 872 872 873 873
837 838 838 839 838 837 838 839 840 838 837 837 837 838 838 838 838 838 837 830 825 827 828 829 829 829 830 831 832 833 834 835 835 835 836 837 837 838 839 841 841 842 843 844 845 845 846 847 848 849 850 850 851 852 853 853 854 855 855 856 856 857 858 859 859 860 861 861 861 861 862 863 863 863 863 863 864 864 864 865 865 865 866 866 867 867 868 868 869 869 870 870 870 871 872 872 873
837 836 836 839 839 837 838 839 840 839 838 838 839 838 837 837 838 839 834 827 824 826 827 829 829 830 830 830 831 831 832 832 833 834 835 836 837 838 839 839 840 840 840 841 842 843 844 845 846 847 848 848 849 850 851 851 852 853 853 853 854 855 856 856 857 858 859 859 860 860 860 861 862 862 862 862 863 863 864 864 864 864 865 865 866 866 867 867 868 868 869 869 870 871 871 872 872
834 833 835 838 838 837 839 839 839 839 838 839 839 838 836 838 840 837 829 824 824 825 827 827 828 829 829 829 829 829 830 830 831 832 833 835 836 836 836 837 837 837 838 839 840 841 841 842 843 844 845 846 847 848 849 849 850 851 851 852 852 852 853 854 855 856 857 857 858 858 858 859 860 861 861 861 862 862 862 863 863 863 863 864 865 865 866 866 867 867 868 868 869 870 870 871 871
830 832 834 836 837 837 839 838 838 840 838 838 839 837 836 839 842 835 825 823 824 826 826 826 828 827 826 826 827 827 828 828 829 831 832 833 833 833 834 835 834 835 836 837 838 839 840 840 840 841 843 844 845 846 846 847 848 848 849 850 850 850 851 852 853 853 854 854 855 856 856 857 858 859 860 860 861 861 861 861 861 862 862 863 864 864 865 865 865 866 867 867 868 869 870 870 870
831 834 836 837 838 838 839 838 839 839 838 838 838 837 836 839 842 833 823 823 825 825 825 825 826 825 824 824 825 826 826 826 828 829 829 829 829 830 831 831 831 832 833 834 835 836 837 838 838 839 840 841 842 843 844 845 845 846 847 848 848 848 849 849 850 851 851 852 852 853 854 855 857 858 858 859 859 860 860 860 860 860 861 861 862 863 863 863 864 865 865 866 867 868 868 869 869
833 835 837 838 838 838 837 836 838 838 838 837 838 842 838 835 834 827 822 822 824 825 824 824 824 823 822 822 823 824 823 825 826 826 825 825 825 826 827 827 828 830 830 831 833 833 834 835 836 837 838 839 840 840 841 842 843 844 844 845 845 846 847 847 848 848 849 849 850 850 851 853 855 856 857 858 858 858 859 859 859 859 859 860 860 861 862 862 863 863 864 864 865 866 867 867 867
835 836 838 839 840 839 834 835 838 838 839 836 840 847 836 824 823 821 820 822 823 825 823 822 821 820 820 821 821 821 821 822 822 822 822 822 823 823 824 825 826 827 828 829 829 830 831 832 834 835 835 837 837 838 839 839 840 840 841 842 842 843 843 844 845 846 847 847 848 848 849 851 852 854 855 856 856 856 857 857 857 858 858 859 859 859 860 861 861 862 862 863 864 864 865 866 866
835 840 841 840 843 840 835 837 838 838 840 837 841 849 835 819 819 818 818 820 823 823 821 819 818 817 818 818 819 819 818 819 819 819 820 820 821 821 821 822 823 824 825 825 825 827 829 829 830 831 832 833 834 835 836 837 837 838 838 839 839 840 840 841 842 843 844 845 846 846 847 849 850 851 853 854 854 855 855 855 855 856 857 857 857 858 859 859 860 860 861 861 862 862 863 864 864
836 843 844 841 843 839 836 838 837 835 840 839 841 846 836 821 817 815 817 820 822 822 819 818 816 815 815 815 816 816 816 816 817 817 817 818 818 818 819 819 820 820 821 821 822 824 825 826 827 827 828 829 831 832 833 834 835 835 836 836 836 837 838 838 839 840 842 842 843 844 845 846 847 848 850 851 852 852 853 853 853 854 855 855 856 856 857 858 858 858 859 859 860 861 861 862 862
838 839 838 841 842 840 838 838 836 835 838 839 840 840 832 823 817 817 820 821 823 823 819 817 816 814 813 813 813 814 814 814 814 814 813 814 815 815 815 816 817 817 818 819 820 821 821 823 824 824 825 826 828 829 831 831 832 833 833 833 834 834 835 836 836 837 838 839 840 841 842 843 844 845 847 848 849 850 850 850 851 852 853 853 854 854 855 856 856 856 856 857 858 859 859 860 861
838 837 836 840 841 839 839 838 836 837 838 838 837 836 830 821 817 819 821 821 822 822 819 817 814 813 812 811 812 812 812 812 810 809 809 810 811 812 812 813 813 814 815 816 817 817 818 820 820 820 822 823 825 826 828 829 829 830 831 831 831 831 832 833 833 834 835 836 836 837 838 839 840 841 843 844 845 846 847 848 849 850 850 851 851 852 853 853 853 854 854 855 855 857 857 858 859
832 837 837 842 843 840 839 836 834 836 839 838 836 837 832 822 816 816 818 820 821 819 817 816 813 812 811 811 810 810 810 808 806 805 806 807 808 809 809 810 811 811 812 812 813 814 815 816 816 817 818 820 822 823 825 826 827 828 828 828 829 829 829 829 830 830 831 832 832 833 835 836 837 838 839 841 842 843 844 845 846 847 848 848 848 849 850 850 851 851 851 852 853 854 855 856 856
823 830 832 837 841 840 837 833 833 835 837 838 835 833 831 825 817 813 813 815 818 818 816 815 813 811 810 809 808 807 807 804 802 802 803 804 805 806 806 807 808 808 809 809 810 811 811 812 813 813 814 816 819 821 822 824 824 825 825 825 825 825 825 825 825 826 827 828 828 829 831 833 834 835 836 837 838 839 841 842 843 844 844 845 845 845 846 847 847 848 849 850 851 852 852 853 854
819 826 830 834 836 837 835 833 836 837 836 832 829 828 826 823 818 811 811 813 815 817 815 813 810 808 808 806 805 804 802 799 799 799 800 801 802 802 803 804 805 805 805 806 806 806 806 807 808 808 809 812 814 816 817 819 819 819 820 820 820 821 821 822 822 822 823 823 824 826 827 829 830 832 832 833 835 835 837 839 840 840 841 841 841 841 843 844 845 845 846 847 848 849 850 850 851
821 826 830 834 834 833 833 834 836 838 839 831 826 828 825 821 818 811 809 811 813 812 811 809 805 804 804 802 801 799 797 796 796 796 796 797 797 798 800 800 801 801 801 802 802 802 802 803 804 804 806 808 808 810 812 813 813 813 814 815 816 818 819 819 819 819 819 820 821 822 823 824 826 828 828 829 831 832 833 835 836 836 836 837 837 838 839 841 842 843 844 845 845 846 847 848 849
823 826 830 833 832 834 836 836 836 837 839 832 828 830 824 817 815 810 807 808 807 806 804 803 801 801 800 797 797 796 795 794 793 792 791 792 793 793 795 795 796 797 797 798 797 798 799 799 799 800 801 802 803 805 806 807 808 809 810 812 813 815 815 816 816 816 817 817 817 818 819 820 821 823 824 825 826 827 828 830 831 831 832 832 833 834 835 837 838 839 840 841 842 843 844 845 846
824 825 830 832 832 836 837 835 836 837 838 837 835 832 823 815 813 809 804 803 802 801 800 799 798 797 795 793 793 792 792 792 790 789 787 787 789 789 790 791 791 792 793 793 793 794 795 794 795 796 796 796 797 798 800 802 804 806 808 809 811 813 813 813 814 814 813 813 813 814 814 815 816 817 819 820 821 822 823 825 826 826 827 828 829 830 831 832 833 835 835 837 838 839 840 841 842
826 825 826 829 832 832 831 833 837 838 840 840 839 835 820 809 809 806 798 796 797 797 797 797 795 793 791 790 791 790 789 789 788 786 784 783 784 784 784 786 787 788 788 788 789 790 790 790 790 791 792 792 793 793 795 798 801 803 805 807 809 811 811 811 810 809 807 808 808 808 808 810 811 812 814 815 816 817 819 820 822 822 823 825 825 825 826 828 829 830 831 832 833 835 836 837 838
826 824 820 822 828 829 831 835 838 841 842 837 841 842 819 799 800 799 792 791 792 793 795 794 792 789 788 788 787 787 786 786 785 783 781 780 780 780 781 782 783 783 783 784 785 786 786 786 786 787 788 789 789 789 791 794 796 798 800 802 804 804 804 803 802 800 800 801 802 803 805 807 808 809 810 811 812 813 814 816 818 818 819 821 821 821 822 824 824 825 827 828 829 830 832 833 834
824 819 817 821 825 829 834 836 838 843 843 837 841 845 825 803 797 793 789 789 788 791 793 790 789 788 785 783 782 782 782 781 781 779 779 778 777 777 778 778 780 779 779 780 781 781 782 782 783 783 784 784 785 786 788 790 791 793 794 795 796 796 796 795 794 794 796 797 798 800 803 804 805 806 807 808 809 810 811 812 814 814 816 817 817 817 819 820 820 821 822 823 825 826 828 829 829
819 814 817 824 826 831 834 835 839 839 839 840 839 841 837 816 796 787 787 790 788 787 790 788 787 786 783 780 777 777 777 776 777 777 776 775 774 774 774 775 775 775 775 776 777 777 777 778 779 779 780 780 781 783 784 785 786 787 788 789 790 790 789 789 790 792 793 795 796 797 799 800 802 803 804 805 806 807 807 808 810 810 811 813 813 814 815 816 816 817 818 819 821 822 823 824 825
816 814 817 822 825 830 831 834 839 839 843 845 835 838 844 817 791 788 788 789 789 785 785 784 784 783 780 776 773 772 773 774 775 775 773 772 771 771 771 771 772 772 772 773 773 773 773 774 775 775 776 776 777 779 780 781 781 783 784 784 784 783 784 785 787 789 790 791 793 794 795 797 798 800 801 802 803 804 804 805 806 806 807 809 810 810 811 813 813 813 814 815 816 817 818 819 821
815 814 817 822 827 830 832 834 838 843 849 844 829 832 840 813 785 786 790 789 787 782 780 780 778 777 774 771 770 770 772 773 772 772 770 768 768 768 768 768 768 768 768 769 769 770 770 770 771 771 771 772 773 774 775 776 777 779 779 779 778 778 779 781 783 784 785 787 788 789 791 792 794 795 796 798 799 800 801 802 802 802 804 805 806 806 808 809 809 810 810 811 812 813 814 815 816
816 817 822 830 835 835 837 836 837 847 848 832 819 821 832 819 788 779 786 786 782 778 777 776 773 772 770 769 769 769 770 770 769 768 766 765 765 765 766 765 765 765 765 766 766 766 766 767 767 767 767 768 769 769 770 771 772 773 773 773 773 774 775 777 778 779 780 781 782 784 785 787 789 790 791 793 795 796 797 798 798 799 800 801 802 803 804 805 806 807 807 807 809 809 810 811 811
816 821 824 833 842 842 845 845 845 852 841 818 810 813 826 825 795 779 782 781 780 778 775 773 771 770 769 768 768 767 767 767 766 766 764 763 763 763 763 763 762 762 762 762 762 762 762 763 763 763 762 763 764 765 765 766 768 768 768 769 770 771 772 774 774 774 774 775 776 778 781 782 784 785 787 789 790 791 793 794 794 795 796 797 798 799 800 801 803 804 804 804 805 805 806 808 808
813 819 822 831 844 846 848 848 845 844 831 815 811 813 821 814 788 779 781 778 779 777 773 772 770 769 768 766 765 764 765 766 765 764 763 762 762 761 761 760 760 760 759 759 758 758 758 758 759 759 758 759 760 761 761 762 763 763 764 766 766 767 769 770 770 771 771 771 772 774 776 777 779 780 781 783 784 786 788 789 789 790 791 792 794 795 796 798 799 800 800 800 801 801 802 803 803
810 811 814 822 833 842 845 841 839 838 826 817 816 819 824 808 780 771 772 771 771 769 769 770 768 767 765 762 762 761 762 764 763 762 761 760 759 758 758 758 757 756 756 756 755 755 755 754 755 755 754 754 756 757 758 758 759 759 760 762 762 764 765 767 767 768 768 769 769 770 771 773 774 775 776 777 779 781 783 784 785 786 787 788 790 791 792 794 795 796 796 796 796 797 798 799 799
802 798 804 810 812 823 829 825 829 831 821 820 824 825 818 799 777 767 764 765 766 765 765 765 764 763 761 759 759 760 760 759 759 758 757 756 754 754 755 754 754 753 752 753 752 751 751 751 751 751 750 751 752 753 754 755 755 755 757 757 758 760 761 763 764 764 764 765 766 766 767 769 769 770 771 773 774 776 778 779 781 783 784 785 786 787 788 789 790 791 791 792 792 793 794 794 794
802 795 802 805 797 800 809 811 812 816 818 820 821 815 796 775 766 765 765 768 767 766 766 765 764 761 759 760 759 759 759 756 755 754 753 751 750 751 752 752 751 750 749 749 748 748 748 747 748 747 747 748 749 750 750 751 751 752 752 753 754 756 757 759 759 760 760 761 763 764 764 765 766 767 768 769 770 772 773 775 777 779 780 781 782 783 784 784 785 786 787 787 787 788 789 789 790
800 801 802 797 790 791 802 810 807 810 818 811 804 804 793 777 767 757 759 765 764 766 766 763 762 761 760 761 759 757 757 754 753 751 749 749 749 750 750 749 748 747 745 745 745 745 745 744 745 744 744 745 745 746 746 747 747 748 749 749 750 752 753 753 754 755 757 758 760 760 761 762 762 763 764 765 766 767 769 771 773 774 776 777 778 779 779 780 781 782 782 782 783 784 785 785 785
793 799 793 792 798 798 801 810 811 816 819 802 791 795 793 788 776 756 754 761 760 762 763 759 759 759 759 758 755 754 753 751 750 748 749 749 749 749 748 746 745 743 742 742 742 742 742 742 742 741 741 741 741 742 742 743 743 744 745 745 746 747 748 749 750 752 754 755 756 756 757 758 758 759 760 761 762 764 765 767 768 770 772 773 773 774 775 776 777 777 777 778 778 780 780 780 781
788 786 780 790 806 808 806 810 811 817 818 801 787 785 781 779 770 757 757 760 758 759 760 760 759 756 755 754 751 750 749 747 747 747 749 748 747 746 745 743 742 740 740 739 739 740 739 738 738 738 738 738 738 739 739 739 740 740 741 741 742 743 744 745 747 748 750 751 751 752 753 753 754 756 756 757 759 760 761 763 764 766 767 769 769 770 771 772 772 773 773 774 774 775 776 776 776
791 786 785 791 797 798 799 798 796 802 808 799 787 780 773 763 754 753 756 754 753 756 757 758 755 750 750 750 749 748 746 745 746 747 748 746 746 745 743 740 739 738 738 737 737 737 736 735 735 735 735 735 735 736 736 737 737 737 737 738 739 740 741 743 744 745 746 746 747 747 748 749 750 752 753 753 755 756 757 758 760 761 763 764 765 766 767 768 768 768 769 769 770 770 771 771 771
789 790 792 795 793 793 794 789 784 789 795 793 788 779 763 746 740 745 749 746 746 749 751 752 750 748 748 748 747 746 744 744 746 747 747 746 745 742 738 738 737 737 736 735 734 734 733 733 732 732 732 732 732 732 733 734 734 735 735 735 737 738 738 740 740 742 742 742 743 743 744 745 746 748 748 749 750 752 753 754 755 756 757 759 760 761 762 763 763 764 764 764 765 765 766 766 766
778 780 782 785 786 790 795 792 786 787 786 781 782 778 757 740 737 739 740 741 742 743 746 748 747 748 747 745 746 745 745 744 744 746 746 746 743 739 736 737 737 736 734 732 732 731 730 730 729 730 729 729 730 730 731 732 732 733 733 733 735 735 736 737 737 738 738 738 738 739 740 741 742 743 744 745 746 747 748 749 750 751 752 754 755 756 758 758 758 758 758 759 759 760 761 761 761